GW1060 Weather Reports


time (UTC)temp
C
wind
direction
speed
KPH
gust
KPH
rain 1hr
cm
rain 24hr
cm
rain mn
cm
humidity
%
barometer
mb
20260505140529 21 229 8.0 17.7 0.00 0.00 0.00 55 1011.9
20260505140433 21 201 12.9 16.1 0.00 0.00 0.00 54 1011.5
20260505124846 18 241 3.2 3.2 0.00 0.00 0.00 70 1011.4
20260505124529 17 245 3.2 4.8 0.00 0.00 0.00 71 1011.7
20260505124343 17 246 1.6 3.2 0.00 0.00 0.00 71 1011.3
20260505123839 17 241 1.6 1.6 0.00 0.00 0.00 72 1011.3
20260505123601 17 239 1.6 8.0 0.00 0.00 0.00 74 1011.7
20260505123336 17 256 3.2 3.2 0.00 0.00 0.00 73 1011.6
20260505122832 16 244 1.6 1.6 0.00 0.00 0.00 76 1011.4
20260505122529 16 244 1.6 3.2 0.00 0.00 0.00 77 1011.8
20260505122330 16 237 1.6 1.6 0.00 0.00 0.00 77 1011.6
20260505121826 15 245 1.6 1.6 0.00 0.00 0.00 79 1011.6
20260505121541 15 241 1.6 1.6 0.00 0.00 0.00 80 1012.0
20260505121323 15 247 1.6 3.2 0.00 0.00 0.00 80 1011.8
20260505120819 15 259 0.0 0.0 0.00 0.00 0.00 81 1011.9
20260505120529 14 245 1.6 4.8 0.00 0.00 0.00 82 1012.2
20260505120315 14 251 1.6 1.6 0.00 0.00 0.00 82 1011.9
20260505115814 13 250 1.6 1.6 0.00 0.00 0.00 83 1011.9
20260505115521 13 246 0.0 3.2 0.00 0.00 0.00 86 1012.0
20260505115312 13 264 0.0 0.0 0.00 0.00 0.00 86 1011.6
20260505114809 13 261 0.0 0.0 0.00 0.00 0.00 87 1011.7
20260505114529 12 0.0 0.0 0.00 0.00 0.00 88 1012.0
20260505114305 12 259 0.0 0.0 0.00 0.00 0.00 88 1011.8
20260505113756 12 274 0.0 0.0 0.00 0.00 0.00 88 1011.5
20260505113521 12 247 1.6 3.2 0.00 0.00 0.00 89 1011.9
20260505113253 12 237 3.2 3.2 0.00 0.00 0.00 89 1011.7
20260505112748 12 258 1.6 1.6 0.00 0.00 0.00 89 1011.7
20260505112529 12 0.0 0.0 0.00 0.00 0.00 89 1011.7
20260505112247 12 269 0.0 0.0 0.00 0.00 0.00 89 1011.4
20260505111747 12 283 0.0 1.6 0.00 0.00 0.00 89 1011.5
20260505111601 11 303 0.0 3.2 0.00 0.00 0.00 89 1011.9
20260505111243 11 285 0.0 0.0 0.00 0.00 0.00 89 1011.5
20260505110739 11 261 0.0 0.0 0.00 0.00 0.00 89 1012.0
20260505110549 11 248 0.0 4.8 0.00 0.00 0.00 90 1012.2
20260505110237 11 223 4.8 8.0 0.00 0.00 0.00 90 1012.1
20260505102212 8 264 0.0 0.0 0.00 0.00 0.00 93 1011.9
20260505101711 8 265 0.0 0.0 0.00 0.00 0.00 93 1011.8
20260505101521 8 0.0 0.0 0.00 0.00 0.00 93 1011.9
20260505101206 8 260 0.0 0.0 0.00 0.00 0.00 93 1011.5
20260505100703 8 261 0.0 0.0 0.00 0.00 0.00 93 1011.4
20260505100529 8 0.0 0.0 0.00 0.00 0.00 93 1011.8
20260505100200 8 257 0.0 0.0 0.00 0.00 0.00 93 1011.4
20260505095655 8 263 0.0 0.0 0.00 0.00 0.00 92 1011.4
20260505095541 8 0.0 0.0 0.00 0.00 0.00 92 1011.6
20260505095153 8 262 0.0 0.0 0.00 0.00 0.00 92 1011.3
20260505094649 8 273 0.0 0.0 0.00 0.00 0.00 92 1011.3
20260505094529 8 285 0.0 1.6 0.00 0.00 0.00 92 1011.4
20260505094145 8 287 1.6 1.6 0.00 0.00 0.00 92 1011.2
20260505093642 8 263 0.0 0.0 0.00 0.00 0.00 92 1011.1
20260505093521 8 0.0 0.0 0.00 0.00 0.00 92 1011.3
20260505093139 8 265 0.0 0.0 0.00 0.00 0.00 92 1010.9
20260505092636 8 263 0.0 0.0 0.00 0.00 0.00 92 1011.1
20260505092529 8 278 0.0 1.6 0.00 0.00 0.00 92 1011.2
20260505092135 8 268 0.0 0.0 0.00 0.00 0.00 92 1011.0
20260505091631 8 277 0.0 0.0 0.00 0.00 0.00 92 1010.8
20260505091521 8 253 0.0 1.6 0.00 0.00 0.00 92 1011.1
20260505091130 8 254 1.6 1.6 0.00 0.00 0.00 91 1010.9
20260505090627 8 266 0.0 0.0 0.00 0.00 0.00 91 1010.9
20260505090529 8 0.0 0.0 0.00 0.00 0.00 91 1011.3
20260505090125 8 270 0.0 0.0 0.00 0.00 0.00 91 1010.9
20260505085622 8 264 0.0 0.0 0.00 0.00 0.00 91 1010.8
20260505085521 8 0.0 0.0 0.00 0.00 0.00 91 1011.1
20260505085120 8 261 0.0 0.0 0.00 0.00 0.00 91 1010.8
20260505084618 8 263 0.0 0.0 0.00 0.00 0.00 91 1010.8
20260505084529 8 0.0 0.0 0.00 0.00 0.00 91 1011.1
20260505084116 8 263 0.0 0.0 0.00 0.00 0.00 91 1010.8
20260505083613 8 261 0.0 0.0 0.00 0.00 0.00 90 1011.0
20260505083521 8 0.0 0.0 0.00 0.00 0.00 90 1011.1
20260505083109 8 262 0.0 0.0 0.00 0.00 0.00 90 1010.8
20260505082605 8 266 0.0 0.0 0.00 0.00 0.00 90 1010.9
20260505082529 8 0.0 0.0 0.00 0.00 0.00 90 1011.1
20260505082103 8 263 0.0 0.0 0.00 0.00 0.00 90 1010.9
20260505081559 9 282 0.0 0.0 0.00 0.00 0.00 90 1010.9
20260505081522 9 287 0.0 1.6 0.00 0.00 0.00 90 1011.1
20260505081056 9 265 0.0 0.0 0.00 0.00 0.00 90 1010.8
20260505080552 9 267 0.0 0.0 0.00 0.00 0.00 89 1011.0
20260505080529 9 0.0 0.0 0.00 0.00 0.00 89 1011.1
20260505080049 9 261 0.0 0.0 0.00 0.00 0.00 89 1010.9
20260505075601 9 0.0 0.0 0.00 0.00 0.00 89 1011.2
20260505075544 9 264 0.0 0.0 0.00 0.00 0.00 89 1011.0
20260505075042 9 266 0.0 0.0 0.00 0.00 0.00 89 1011.0
20260505074538 9 261 0.0 0.0 0.00 0.00 0.00 88 1010.9
20260505074529 9 0.0 0.0 0.00 0.00 0.00 88 1011.2
20260505074036 9 261 0.0 0.0 0.00 0.00 0.00 88 1011.0
20260505073533 9 263 0.0 0.0 0.00 0.00 0.00 88 1011.0
20260505073521 9 0.0 0.0 0.00 0.00 0.00 88 1011.2
20260505073032 9 269 0.0 0.0 0.00 0.00 0.00 88 1010.8
20260505072530 9 0.0 0.0 0.00 0.00 0.00 87 1011.2
20260505072527 9 262 0.0 0.0 0.00 0.00 0.00 87 1010.8
20260505072023 10 265 0.0 0.0 0.00 0.00 0.00 87 1011.0
20260505071521 10 0.0 0.0 0.00 0.00 0.00 87 1011.0
20260505071519 10 262 0.0 0.0 0.00 0.00 0.00 87 1010.7
20260505071018 10 265 0.0 0.0 0.00 0.00 0.00 87 1010.8
20260505070609 10 0.0 0.0 0.00 0.00 0.00 86 1011.1
20260505070514 10 265 0.0 0.0 0.00 0.00 0.00 87 1010.9
20260505070010 10 264 0.0 0.0 0.00 0.00 0.00 86 1010.9
20260505065522 10 0.0 0.0 0.00 0.00 0.00 86 1011.1
20260505065506 10 264 0.0 0.0 0.00 0.00 0.00 86 1010.8
20260505065003 10 282 0.0 0.0 0.00 0.00 0.00 86 1010.9
20260505064529 10 0.0 0.0 0.00 0.00 0.00 86 1010.9
20260505064500 10 262 0.0 0.0 0.00 0.00 0.00 86 1010.6
20260505063958 10 265 0.0 0.0 0.00 0.00 0.00 85 1010.7
20260505063521 10 0.0 0.0 0.00 0.00 0.00 85 1011.1
20260505063455 10 264 0.0 0.0 0.00 0.00 0.00 85 1011.0
20260505062951 10 264 0.0 0.0 0.00 0.00 0.00 84 1010.8
20260505062550 10 0.0 0.0 0.00 0.00 0.00 83 1011.3
20260505062448 10 264 0.0 0.0 0.00 0.00 0.00 84 1011.0
20260505061945 10 264 0.0 0.0 0.00 0.00 0.00 83 1010.9
20260505061521 10 0.0 0.0 0.00 0.00 0.00 82 1011.3
20260505061443 10 264 0.0 0.0 0.00 0.00 0.00 82 1011.0
20260505060940 10 263 0.0 0.0 0.00 0.00 0.00 82 1011.1
20260505060549 11 0.0 0.0 0.00 0.00 0.00 81 1011.3
20260505060437 11 261 0.0 0.0 0.00 0.00 0.00 81 1010.9
20260505055933 11 261 0.0 0.0 0.00 0.00 0.00 80 1011.0
20260505055521 11 0.0 0.0 0.00 0.00 0.00 80 1011.3
20260505055430 11 260 0.0 0.0 0.00 0.00 0.00 80 1010.9
20260505054926 11 262 0.0 0.0 0.00 0.00 0.00 79 1011.1
20260505054529 11 0.0 0.0 0.00 0.00 0.00 79 1011.3
20260505054424 11 258 0.0 0.0 0.00 0.00 0.00 79 1010.9
20260505053922 11 258 0.0 0.0 0.00 0.00 0.00 79 1011.2
20260505053521 11 0.0 0.0 0.00 0.00 0.00 80 1011.4
20260505053418 11 258 0.0 0.0 0.00 0.00 0.00 80 1011.1
20260505052915 11 260 0.0 0.0 0.00 0.00 0.00 80 1011.4
20260505052530 11 0.0 0.0 0.00 0.00 0.00 81 1011.5
20260505052412 11 258 0.0 0.0 0.00 0.00 0.00 81 1011.3
20260505051910 11 259 0.0 0.0 0.00 0.00 0.00 81 1011.3
20260505051522 11 0.0 0.0 0.00 0.00 0.00 81 1011.6
20260505051407 11 260 0.0 0.0 0.00 0.00 0.00 81 1011.4
20260505050905 11 265 0.0 0.0 0.00 0.00 0.00 80 1011.3
20260505050530 11 0.0 0.0 0.00 0.00 0.00 80 1011.6
20260505050403 11 264 0.0 0.0 0.00 0.00 0.00 80 1011.3
20260505041522 12 0.0 0.0 0.00 0.00 0.00 74 1011.6
20260505041330 12 263 0.0 0.0 0.00 0.00 0.00 74 1011.4
20260505040827 12 263 0.0 0.0 0.00 0.00 0.00 74 1011.4
20260505040530 12 0.0 0.0 0.00 0.00 0.00 73 1011.7
20260505040325 12 268 0.0 0.0 0.00 0.00 0.00 73 1011.3
20260505035821 12 264 0.0 0.0 0.00 0.00 0.00 73 1011.4
20260505035542 12 0.0 0.0 0.00 0.00 0.00 72 1011.7
20260505035317 12 281 0.0 0.0 0.00 0.00 0.00 72 1011.4
20260505034815 12 264 0.0 0.0 0.00 0.00 0.00 71 1011.5
20260505034550 13 0.0 0.0 0.00 0.00 0.00 70 1011.6
20260505034311 13 260 0.0 0.0 0.00 0.00 0.00 70 1011.4
20260505033808 13 267 0.0 0.0 0.00 0.00 0.00 69 1011.4
20260505033522 13 0.0 0.0 0.00 0.00 0.00 68 1011.7
20260505033305 13 259 0.0 0.0 0.00 0.00 0.00 68 1011.5
20260505032804 13 259 0.0 0.0 0.00 0.00 0.00 67 1011.5
20260505032530 13 275 0.0 1.6 0.00 0.00 0.00 66 1011.7
20260505032259 13 267 0.0 0.0 0.00 0.00 0.00 66 1011.5
20260505031756 14 272 0.0 1.6 0.00 0.00 0.00 65 1011.3
20260505031522 14 277 0.0 1.6 0.00 0.00 0.00 64 1011.8
20260505031253 14 264 0.0 0.0 0.00 0.00 0.00 64 1011.6
20260505030750 15 265 0.0 0.0 0.00 0.00 0.00 62 1011.4
20260505030530 15 0.0 0.0 0.00 0.00 0.00 61 1011.8
20260505030246 15 268 0.0 0.0 0.00 0.00 0.00 61 1011.6
20260505025742 15 257 0.0 0.0 0.00 0.00 0.00 59 1011.4
20260505025522 15 0.0 0.0 0.00 0.00 0.00 58 1011.7
20260505025240 15 263 0.0 0.0 0.00 0.00 0.00 58 1011.3
20260505024738 16 263 0.0 0.0 0.00 0.00 0.00 56 1011.4
20260505024530 16 254 0.0 1.6 0.00 0.00 0.00 55 1011.7
20260505024235 16 268 0.0 0.0 0.00 0.00 0.00 55 1011.6
20260505023732 16 256 0.0 0.0 0.00 0.00 0.00 54 1011.3
20260505023522 17 249 0.0 3.2 0.00 0.00 0.00 53 1011.7
20260505023230 17 258 0.0 0.0 0.00 0.00 0.00 53 1011.3
20260505022727 17 259 0.0 0.0 0.00 0.00 0.00 52 1011.6
20260505022530 17 245 1.6 3.2 0.00 0.00 0.00 52 1011.8
20260505022224 17 254 1.6 1.6 0.00 0.00 0.00 52 1011.4
20260505021720 17 243 1.6 1.6 0.00 0.00 0.00 52 1011.5
20260505021522 17 240 3.2 8.0 0.00 0.00 0.00 51 1011.9
20260505021217 17 247 1.6 3.2 0.00 0.00 0.00 50 1011.7
20260505020713 16 232 3.2 3.2 0.00 0.00 0.00 51 1011.5
20260505020530 17 255 0.0 1.6 0.00 0.00 0.00 49 1011.8
20260505020208 17 250 0.0 0.0 0.00 0.00 0.00 49 1011.5
20260505015706 16 258 0.0 0.0 0.00 0.00 0.00 48 1011.4
20260505015522 17 254 0.0 1.6 0.00 0.00 0.00 48 1011.8
20260505015203 17 252 0.0 0.0 0.00 0.00 0.00 48 1011.5
20260505014700 17 256 0.0 0.0 0.00 0.00 0.00 45 1011.2
20260505014530 18 0.0 0.0 0.00 0.00 0.00 44 1011.7
20260505014157 18 253 0.0 0.0 0.00 0.00 0.00 43 1011.6
20260505013654 18 249 1.6 1.6 0.00 0.00 0.00 42 1011.4
20260505013522 18 249 0.0 3.2 0.00 0.00 0.00 42 1011.6
20260505013151 18 249 0.0 0.0 0.00 0.00 0.00 42 1011.2
20260505012649 18 260 1.6 1.6 0.00 0.00 0.00 41 1011.3
20260505012530 18 238 1.6 8.0 0.00 0.00 0.00 41 1011.4
20260505012146 18 241 1.6 1.6 0.00 0.00 0.00 42 1011.2
20260505011642 19 251 0.0 0.0 0.00 0.00 0.00 41 1011.0
20260505011522 19 247 1.6 8.0 0.00 0.00 0.00 41 1011.3
20260505011139 19 248 0.0 1.6 0.00 0.00 0.00 41 1011.0
20260505010639 19 229 1.6 1.6 0.00 0.00 0.00 40 1010.9
20260505010530 19 240 1.6 4.8 0.00 0.00 0.00 40 1011.0
20260505010137 19 237 3.2 3.2 0.00 0.00 0.00 40 1010.8
20260505005632 20 258 1.6 3.2 0.00 0.00 0.00 39 1010.7
20260505005522 19 232 3.2 9.7 0.00 0.00 0.00 39 1011.0
20260505005130 20 247 1.6 3.2 0.00 0.00 0.00 39 1010.9
20260505004627 20 256 0.0 0.0 0.00 0.00 0.00 39 1010.5
20260505004550 20 236 3.2 8.0 0.00 0.00 0.00 39 1010.8
20260505004123 20 243 3.2 3.2 0.00 0.00 0.00 39 1010.5
20260505003621 20 231 8.0 9.7 0.00 0.00 0.00 39 1010.4
20260505003522 20 244 3.2 9.7 0.00 0.00 0.00 39 1010.7
20260505003118 20 234 3.2 3.2 0.00 0.00 0.00 38 1010.5
20260505002614 20 243 3.2 3.2 0.00 0.00 0.00 39 1010.2
20260505002530 20 235 3.2 11.3 0.00 0.00 0.00 39 1010.5
20260505002113 20 259 0.0 1.6 0.00 0.00 0.00 39 1010.2
20260505001609 20 242 3.2 3.2 0.00 0.00 0.00 38 1010.1
20260505001522 20 236 3.2 9.7 0.00 0.00 0.00 37 1010.4
20260505001107 20 220 6.4 8.0 0.00 0.00 0.00 37 1010.3
20260505000604 20 225 3.2 4.8 0.00 0.00 0.00 37 1010.0
20260505000530 21 230 4.8 14.5 0.00 0.00 0.00 36 1010.1
20260504235558 20 224 8.0 11.3 0.00 0.00 0.00 36 1009.7
20260504235522 20 244 3.2 8.0 0.00 0.00 0.00 37 1010.0
20260504235054 21 255 1.6 3.2 0.00 0.00 0.00 37 1009.8
20260504234551 21 256 4.8 8.0 0.00 0.00 0.00 36 1009.6
20260504234049 21 254 0.0 0.0 0.00 0.00 0.00 36 1009.5
20260504233543 21 246 8.0 11.3 0.00 0.00 0.00 35 1009.5
20260504233523 21 239 9.7 25.7 0.00 0.00 0.00 35 1009.8
20260504233041 21 248 11.3 17.7 0.00 0.00 0.00 35 1009.5
20260504232538 21 210 6.4 8.0 0.00 0.00 0.00 35 1009.3
20260504232531 21 244 4.8 9.7 0.00 0.00 0.00 34 1009.6
20260504232036 21 263 6.4 8.0 0.00 0.00 0.00 34 1009.3
20260504231532 22 233 6.4 8.0 0.00 0.00 0.00 34 1009.2
20260504231522 22 238 6.4 16.1 0.00 0.00 0.00 34 1009.5
20260504231028 22 246 4.8 4.8 0.00 0.00 0.00 34 1009.1
20260504230530 22 246 4.8 9.7 0.00 0.00 0.00 33 1009.4
20260504230525 22 236 4.8 4.8 0.00 0.00 0.00 33 1009.3
20260504230024 22 244 4.8 8.0 0.00 0.00 0.00 33 1009.2
20260504225522 22 247 6.4 14.5 0.00 0.00 0.00 33 1009.5
20260504225520 22 243 8.0 11.3 0.00 0.00 0.00 33 1009.3
20260504225017 22 255 1.6 1.6 0.00 0.00 0.00 34 1009.1
20260504224530 22 251 4.8 9.7 0.00 0.00 0.00 32 1009.4
20260504224514 22 239 4.8 4.8 0.00 0.00 0.00 32 1009.1
20260504224011 22 243 4.8 4.8 0.00 0.00 0.00 32 1009.3
20260504223522 22 279 6.4 14.5 0.00 0.00 0.00 32 1009.4
20260504223508 22 310 8.0 11.3 0.00 0.00 0.00 32 1009.1
20260504223004 22 316 4.8 4.8 0.00 0.00 0.00 32 1009.0
20260504222531 22 236 8.0 17.7 0.00 0.00 0.00 32 1009.4
20260504222501 22 243 16.1 20.9 0.00 0.00 0.00 32 1009.2
20260504221958 22 212 8.0 14.5 0.00 0.00 0.00 32 1009.4
20260504221522 22 248 6.4 12.9 0.00 0.00 0.00 32 1009.5
20260504221455 22 260 3.2 3.2 0.00 0.00 0.00 32 1009.3
20260504220952 22 238 8.0 8.0 0.00 0.00 0.00 32 1009.2
20260504220530 22 238 8.0 16.1 0.00 0.00 0.00 32 1009.6
20260504220448 22 233 16.1 17.7 0.00 0.00 0.00 31 1009.3
20260504215945 22 252 4.8 4.8 0.00 0.00 0.00 31 1009.4
20260504215522 22 246 8.0 20.9 0.00 0.00 0.00 31 1009.7
20260504215442 22 241 4.8 8.0 0.00 0.00 0.00 32 1009.5
20260504214939 22 217 12.9 14.5 0.00 0.00 0.00 31 1009.5
20260504214531 23 265 4.8 12.9 0.00 0.00 0.00 31 1009.8
20260504214435 23 262 6.4 11.3 0.00 0.00 0.00 31 1009.5
20260504213932 23 247 12.9 14.5 0.00 0.00 0.00 30 1009.5
20260504213522 22 259 6.4 16.1 0.00 0.00 0.00 31 1009.8
20260504213428 23 257 4.8 8.0 0.00 0.00 0.00 29 1009.7
20260504212926 22 236 4.8 8.0 0.00 0.00 0.00 31 1009.7
20260504212530 22 237 8.0 20.9 0.00 0.00 0.00 31 1009.9
20260504212421 23 218 11.3 14.5 0.00 0.00 0.00 30 1009.6
20260504211919 23 239 8.0 9.7 0.00 0.00 0.00 31 1009.7
20260504211522 22 254 6.4 14.5 0.00 0.00 0.00 31 1010.0
20260504211415 22 314 6.4 9.7 0.00 0.00 0.00 30 1009.7
20260504210912 22 232 8.0 12.9 0.00 0.00 0.00 32 1009.6
20260504210531 22 268 6.4 16.1 0.00 0.00 0.00 31 1010.0
20260504210409 22 277 8.0 11.3 0.00 0.00 0.00 31 1009.7
20260504205907 23 215 11.3 12.9 0.00 0.00 0.00 30 1009.7
20260504205522 22 232 9.7 17.7 0.00 0.00 0.00 31 1010.0
20260504205404 22 250 8.0 9.7 0.00 0.00 0.00 31 1009.8
20260504204902 22 196 6.4 9.7 0.00 0.00 0.00 32 1009.5
20260504204530 22 257 4.8 14.5 0.00 0.00 0.00 32 1010.0
20260504204400 22 240 8.0 9.7 0.00 0.00 0.00 32 1009.8
20260504203900 21 260 1.6 1.6 0.00 0.00 0.00 32 1009.6
20260504203531 22 234 4.8 12.9 0.00 0.00 0.00 32 1009.9
20260504203356 22 237 11.3 16.1 0.00 0.00 0.00 32 1009.6
20260504202852 22 254 3.2 9.7 0.00 0.00 0.00 32 1009.6
20260504202551 22 260 6.4 14.5 0.00 0.00 0.00 31 1009.9
20260504202349 22 307 8.0 11.3 0.00 0.00 0.00 31 1009.7
20260504201845 22 270 3.2 8.0 0.00 0.00 0.00 30 1009.9
20260504201523 22 239 8.0 17.7 0.00 0.00 0.00 30 1010.1
20260504201343 22 250 8.0 11.3 0.00 0.00 0.00 29 1009.7
20260504200840 22 206 14.5 20.9 0.00 0.00 0.00 30 1009.9
20260504200531 22 274 6.4 14.5 0.00 0.00 0.00 30 1010.1
20260504200337 22 24 4.8 4.8 0.00 0.00 0.00 30 1009.9
20260504195833 22 229 11.3 14.5 0.00 0.00 0.00 30 1010.0
20260504195603 22 245 6.4 22.5 0.00 0.00 0.00 30 1010.3
20260504195329 22 254 6.4 9.7 0.00 0.00 0.00 30 1010.1
20260504194826 23 265 3.2 4.8 0.00 0.00 0.00 30 1010.0
20260504194531 22 239 6.4 14.5 0.00 0.00 0.00 30 1010.4
20260504194322 22 284 6.4 9.7 0.00 0.00 0.00 31 1010.1
20260504193818 22 254 6.4 8.0 0.00 0.00 0.00 30 1010.2
20260504193523 22 252 8.0 20.9 0.00 0.00 0.00 31 1010.4
20260504193316 22 212 14.5 20.9 0.00 0.00 0.00 31 1010.2
20260504192814 22 255 3.2 3.2 0.00 0.00 0.00 32 1010.2
20260504192531 22 255 6.4 14.5 0.00 0.00 0.00 31 1010.4
20260504192312 22 236 11.3 14.5 0.00 0.00 0.00 31 1010.0
20260504191810 22 252 4.8 8.0 0.00 0.00 0.00 30 1010.1
20260504191523 22 267 4.8 17.7 0.00 0.00 0.00 31 1010.6
20260504191307 22 253 9.7 12.9 0.00 0.00 0.00 31 1010.3
20260504190803 22 261 8.0 9.7 0.00 0.00 0.00 32 1010.5
20260504190531 22 244 9.7 24.1 0.00 0.00 0.00 31 1010.8
20260504190259 22 270 14.5 17.7 0.00 0.00 0.00 31 1010.6
20260504185755 21 226 12.9 17.7 0.00 0.00 0.00 33 1010.5
20260504185542 22 238 9.7 24.1 0.00 0.00 0.00 32 1011.0
20260504185253 22 246 11.3 12.9 0.00 0.00 0.00 33 1010.6
20260504184749 21 229 3.2 4.8 0.00 0.00 0.00 32 1010.6
20260504184531 22 288 9.7 20.9 0.00 0.00 0.00 31 1011.1
20260504184244 22 333 11.3 14.5 0.00 0.00 0.00 32 1010.9
20260504183740 22 310 9.7 11.3 0.00 0.00 0.00 31 1010.8
20260504183543 22 272 6.4 16.1 0.00 0.00 0.00 32 1011.0
20260504183237 22 273 4.8 8.0 0.00 0.00 0.00 32 1010.6
20260504182736 21 287 3.2 3.2 0.00 0.00 0.00 32 1010.8
20260504182531 22 271 8.0 22.5 0.00 0.00 0.00 32 1011.2
20260504182232 22 268 11.3 12.9 0.00 0.00 0.00 32 1011.0
20260504181730 21 46 4.8 8.0 0.00 0.00 0.00 31 1010.8
20260504181523 21 243 8.0 16.1 0.00 0.00 0.00 32 1011.3
20260504181227 21 245 4.8 8.0 0.00 0.00 0.00 32 1011.0
20260504180726 21 223 16.1 22.5 0.00 0.00 0.00 32 1011.1
20260504180532 21 261 8.0 22.5 0.00 0.00 0.00 32 1011.4
20260504180225 21 282 1.6 4.8 0.00 0.00 0.00 33 1011.1
20260504175722 21 243 3.2 4.8 0.00 0.00 0.00 33 1011.2
20260504175523 21 266 4.8 12.9 0.00 0.00 0.00 32 1011.6
20260504175218 21 290 4.8 4.8 0.00 0.00 0.00 33 1011.3
20260504174716 21 277 3.2 3.2 0.00 0.00 0.00 32 1011.3
20260504174611 21 253 8.0 20.9 0.00 0.00 0.00 33 1011.7
20260504174214 21 220 8.0 9.7 0.00 0.00 0.00 32 1011.3
20260504173710 21 310 14.5 17.7 0.00 0.00 0.00 31 1011.7
20260504173523 21 274 6.4 17.7 0.00 0.00 0.00 32 1011.9
20260504173208 21 308 6.4 9.7 0.00 0.00 0.00 32 1011.5
20260504172704 21 253 11.3 22.5 0.00 0.00 0.00 33 1011.8
20260504172531 21 242 8.0 22.5 0.00 0.00 0.00 33 1011.9
20260504172200 20 219 4.8 9.7 0.00 0.00 0.00 34 1011.5
20260504171657 20 238 6.4 9.7 0.00 0.00 0.00 33 1011.7
20260504171531 20 243 8.0 17.7 0.00 0.00 0.00 33 1012.1
20260504171154 20 263 12.9 17.7 0.00 0.00 0.00 32 1012.0
20260504170650 20 259 0.0 1.6 0.00 0.00 0.00 33 1011.8
20260504170531 20 256 8.0 22.5 0.00 0.00 0.00 33 1012.2
20260504170148 21 267 8.0 16.1 0.00 0.00 0.00 32 1012.1
20260504160106 19 195 16.1 22.5 0.00 0.00 0.00 33 1012.8
20260504151033 18 234 14.5 16.1 0.00 0.00 0.00 34 1013.4
20260504150532 17 226 9.7 17.7 0.00 0.00 0.00 36 1013.8